TimeEST,TemperatureF,Dew PointF,Humidity,Sea Level PressureIn,VisibilityMPH,Wind Direction,Wind SpeedMPH,Gust SpeedMPH,PrecipitationIn,Events,Conditions,WindDirDegrees,DateUTC
12:15 AM,34.0,33.1,96,30.02,10.0,Calm,Calm,-,N/A,,Overcast,0,2013-02-16 05:15:00
12:35 AM,33.3,32.9,99,30.01,7.0,West,4.6,-,N/A,,Overcast,280,2013-02-16 05:35:00
12:55 AM,33.1,32.9,99,30.00,7.0,West,3.5,-,N/A,,Overcast,270,2013-02-16 05:55:00
1:15 AM,33.1,33.1,100,30.00,10.0,WNW,3.5,-,N/A,,Overcast,300,2013-02-16 06:15:00
1:35 AM,32.9,32.0,96,30.00,10.0,NW,5.8,-,N/A,,Overcast,320,2013-02-16 06:35:00
1:55 AM,33.1,31.6,94,29.99,10.0,WNW,3.5,-,N/A,,Overcast,300,2013-02-16 06:55:00
2:15 AM,32.9,30.9,92,29.99,10.0,NW,3.5,-,N/A,,Overcast,320,2013-02-16 07:15:00
2:35 AM,32.9,30.6,91,29.98,10.0,Calm,Calm,-,N/A,,Overcast,0,2013-02-16 07:35:00
2:55 AM,32.5,30.4,92,29.97,10.0,Calm,Calm,-,N/A,,Mostly Cloudy,0,2013-02-16 07:55:00
3:15 AM,32.0,31.1,96,29.97,10.0,Calm,Calm,-,N/A,,Scattered Clouds,0,2013-02-16 08:15:00
3:35 AM,31.6,30.2,94,29.95,10.0,Calm,Calm,-,N/A,,Mostly Cloudy,0,2013-02-16 08:35:00
3:55 AM,31.6,30.7,96,29.95,10.0,Calm,Calm,-,N/A,,Overcast,0,2013-02-16 08:55:00
4:15 AM,32.0,30.4,94,29.95,10.0,Calm,Calm,-,N/A,,Overcast,0,2013-02-16 09:15:00
4:35 AM,32.0,30.4,94,29.94,10.0,Calm,Calm,-,N/A,,Overcast,0,2013-02-16 09:35:00
4:55 AM,31.8,31.6,99,29.94,5.0,Calm,Calm,-,N/A,Snow,Light Snow,0,2013-02-16 09:55:00
5:15 AM,32.0,31.6,99,29.94,5.0,North,3.5,-,N/A,Snow,Light Snow,350,2013-02-16 10:15:00
5:35 AM,32.0,30.7,95,29.93,5.0,North,6.9,-,N/A,Snow,Light Snow,350,2013-02-16 10:35:00
6:15 AM,32.0,28.8,88,29.93,10.0,North,3.5,-,N/A,,Unknown,350,2013-02-16 11:15:00
6:35 AM,31.6,28.4,88,29.93,10.0,NW,3.5,-,N/A,,Mostly Cloudy,320,2013-02-16 11:35:00
7:15 AM,31.5,26.8,83,29.92,10.0,North,5.8,-,N/A,,Mostly Cloudy,350,2013-02-16 12:15:00
7:55 AM,30.9,25.7,81,29.93,10.0,North,4.6,-,N/A,,Scattered Clouds,350,2013-02-16 12:55:00
8:15 AM,30.7,25.9,82,29.93,10.0,North,3.5,-,N/A,,Scattered Clouds,360,2013-02-16 13:15:00
8:35 AM,31.1,25.7,80,29.93,10.0,Calm,Calm,-,N/A,,Mostly Cloudy,0,2013-02-16 13:35:00
8:55 AM,31.1,26.1,82,29.93,10.0,NNW,4.6,-,N/A,,Scattered Clouds,340,2013-02-16 13:55:00
9:15 AM,31.6,26.4,81,29.92,10.0,Calm,Calm,-,N/A,,Clear,0,2013-02-16 14:15:00
9:35 AM,31.8,25.5,78,29.92,10.0,North,6.9,-,N/A,,Mostly Cloudy,360,2013-02-16 14:35:00
9:55 AM,31.6,24.8,76,29.92,10.0,North,5.8,-,N/A,,Mostly Cloudy,10,2013-02-16 14:55:00
10:15 AM,31.6,25.0,76,29.92,10.0,NNW,9.2,-,N/A,,Overcast,340,2013-02-16 15:15:00
10:35 AM,31.5,25.0,77,29.92,10.0,North,8.1,-,N/A,,Overcast,360,2013-02-16 15:35:00
12:55 PM,32.0,24.6,74,29.90,10.0,North,12.7,17.3,N/A,,Overcast,350,2013-02-16 17:55:00
1:35 PM,32.5,22.5,66,29.89,10.0,NNW,12.7,19.6,N/A,,Overcast,340,2013-02-16 18:35:00
1:55 PM,31.5,21.2,66,29.89,10.0,NNW,12.7,19.6,N/A,,Overcast,330,2013-02-16 18:55:00
2:15 PM,32.0,18.9,58,29.89,10.0,North,11.5,17.3,N/A,,Mostly Cloudy,360,2013-02-16 19:15:00
2:35 PM,32.0,19.2,59,29.89,10.0,North,9.2,17.3,N/A,,Mostly Cloudy,10,2013-02-16 19:35:00
3:15 PM,31.5,18.9,60,29.89,10.0,NNW,11.5,-,N/A,,Overcast,330,2013-02-16 20:15:00
3:35 PM,31.6,17.4,56,29.88,10.0,NNW,10.4,-,N/A,,Mostly Cloudy,340,2013-02-16 20:35:00
3:55 PM,32.0,18.0,56,29.88,10.0,North,8.1,-,N/A,,Mostly Cloudy,350,2013-02-16 20:55:00
4:15 PM,31.5,17.6,57,29.89,10.0,NNW,13.8,19.6,N/A,,Mostly Cloudy,340,2013-02-16 21:15:00
4:35 PM,30.9,18.1,59,29.89,7.0,NNW,11.5,17.3,N/A,Snow,Light Snow,340,2013-02-16 21:35:00
4:55 PM,30.4,17.2,58,29.90,10.0,North,10.4,16.1,N/A,,Overcast,350,2013-02-16 21:55:00
5:15 PM,30.2,16.5,57,29.90,7.0,North,17.3,26.5,N/A,,Overcast,350,2013-02-16 22:15:00
5:35 PM,29.5,18.0,62,29.90,10.0,NW,8.1,-,N/A,,Scattered Clouds,320,2013-02-16 22:35:00
6:15 PM,28.8,18.7,66,29.91,7.0,North,11.5,18.4,N/A,,Mostly Cloudy,360,2013-02-16 23:15:00
6:35 PM,28.4,17.1,63,29.91,10.0,NNW,10.4,16.1,N/A,,Mostly Cloudy,330,2013-02-16 23:35:00
6:55 PM,27.3,21.4,78,29.92,2.5,NNW,8.1,23.0,N/A,Snow,Light Snow,340,2013-02-16 23:55:00
7:35 PM,27.3,18.5,69,29.93,10.0,NW,11.5,17.3,N/A,,Mostly Cloudy,320,2013-02-17 00:35:00
7:55 PM,27.0,19.4,73,29.93,10.0,NW,12.7,17.3,N/A,,Mostly Cloudy,320,2013-02-17 00:55:00
8:15 PM,26.6,21.0,79,29.94,7.0,NW,8.1,-,N/A,Snow,Light Snow,320,2013-02-17 01:15:00
8:35 PM,26.4,18.5,72,29.94,10.0,NW,9.2,18.4,N/A,,Unknown,320,2013-02-17 01:35:00
8:55 PM,26.6,16.7,66,29.94,10.0,NNW,12.7,25.3,N/A,,Scattered Clouds,340,2013-02-17 01:55:00
9:15 PM,26.2,17.4,69,29.94,10.0,NNW,12.7,19.6,N/A,,Scattered Clouds,340,2013-02-17 02:15:00
9:35 PM,25.9,17.4,70,29.95,10.0,NNW,8.1,17.3,N/A,,Scattered Clouds,330,2013-02-17 02:35:00
10:15 PM,25.5,17.4,71,29.95,10.0,NNW,10.4,18.4,N/A,,Scattered Clouds,330,2013-02-17 03:15:00
10:35 PM,25.7,17.1,70,29.95,10.0,NW,6.9,-,N/A,,Mostly Cloudy,320,2013-02-17 03:35:00
10:55 PM,25.7,16.2,67,29.95,10.0,NNW,8.1,17.3,N/A,,Mostly Cloudy,330,2013-02-17 03:55:00
11:15 PM,25.7,16.0,67,29.95,10.0,NNW,8.1,-,N/A,,Mostly Cloudy,340,2013-02-17 04:15:00
11:35 PM,26.1,15.3,64,29.95,10.0,NNW,9.2,-,N/A,,Overcast,340,2013-02-17 04:35:00
11:55 PM,25.7,14.0,61,29.95,10.0,NW,6.9,16.1,N/A,,Overcast,320,2013-02-17 04:55:00